Location: Erp
(42.9417°N, 1.2009°E)
Time: 06:24:12
(UTC+00:00)

Cosmos 1470 Rocket - Pass Details

Date: 12 January 2026
Orbit: 597 x 626 km, 82.5° (Epoch: 10 February)

Event Time Altitude Azimuth Distance (km) Brightness Sun altitude
Rises 17:40:16 0° 358° (N) 2,855 6.8 -10.4°
Reaches altitude 10° 17:42:34 10° 4° (N) 1,950 5.9 -10.8°
Maximum altitude 17:46:42 44° 78° (ENE) 834 3.8 -11.5°
Drops below altitude 10° 17:50:50 10° 151° (SSE) 1,949 6.0 -12.3°
Sets 17:53:07 0° 158° (SSE) 2,852 6.9 -12.7°
